Flag for France Weather past 2 weeks in Istres, France

Now
82 °F

Sunny.


Feels Like: 84 °F
Forecast: 68 / 96 °F
Wind: 9 mph from Southeast

Location: Istres Airport

Current Time: Jul 5, 2015 at 9:47:07 PM

Latest Report: Jul 5, 2015 at 9:00 PM


Visibility: 10 mi

Pressure: 30.04 "Hg

Humidity: 55%

Dew point: 64 °F

Location of IstresLocation

Historic Weather in Istres — Graph

°F

Istres temperature yesterday

Maximum temperature yesterday: 95 °F (at 2:30 PM)
Minimum temperature yesterday: 70 °F (at 5:00 AM)
Average temperature yesterday: 83 °F

Past Weeks' High & Low Weather Summary

 TemperatureHumidityPressure
High95 °F (Jul 4, 2:30 PM)94% (Jun 23, 1:30 AM)30.21 "Hg (Jun 23, 1:30 AM)
Low59 °F (Jun 25, 5:30 AM)14% (Jun 28, 7:00 PM)29.83 "Hg (Jun 23, 5:00 AM)
Average78 °F51%30.06 "Hg
* Reported Jun 20 9:00 PM — Jul 5 9:00 PM, Istres, Weather by CustomWeather, © 2015

Note: Actual official high and low records may vary slightly from our data, if they occured in-between our weather recording intervals... More about our weather records

Advertising

Istres weather history for previous 24 hours

 ConditionsComfort  
Time TempWeatherWind HumidityBarometerVisibility
9:00 PM
Sun, Jul 5
82 °FSunny.9 mph55%30.04 "Hg10 mi
8:30 PM84 °FSunny.9 mph51%30.04 "Hg10 mi
8:00 PM86 °FSunny.13 mph43%30.04 "Hg10 mi
7:30 PM88 °FSunny.13 mph38%30.04 "Hg10 mi
7:00 PM90 °FSunny.13 mph36%30.04 "Hg10 mi
6:30 PM90 °FSunny.15 mph31%30.04 "Hg10 mi
6:00 PM90 °FSunny.15 mph38%30.04 "Hg10 mi
5:30 PM90 °FSunny.16 mph33%30.04 "Hg10 mi
5:00 PM91 °FSunny.17 mph30%30.04 "Hg10 mi
4:30 PM91 °FSunny.20 mph28%30.04 "Hg10 mi
4:00 PM91 °FSunny.20 mph28%30.07 "Hg10 mi
3:30 PM93 °FSunny.18 mph26%30.07 "Hg10 mi
3:00 PM93 °FSunny.18 mph24%30.07 "Hg10 mi
2:30 PM93 °FSunny.18 mph24%30.07 "Hg10 mi
2:00 PM93 °FSunny.20 mph26%30.07 "Hg10 mi
1:30 PM93 °FSunny.18 mph24%30.07 "Hg10 mi
1:00 PM93 °FPassing clouds.15 mph26%30.07 "HgN/A
12:30 PM93 °FPassing clouds.15 mph26%30.07 "HgN/A
12:00 PM91 °FSunny.13 mph30%30.07 "Hg10 mi
11:30 AM90 °FScattered clouds.13 mph33%30.07 "HgN/A
11:00 AM90 °FPassing clouds.12 mph31%30.07 "HgN/A
10:30 AM88 °FSunny.12 mph35%30.07 "Hg10 mi
10:00 AM86 °FSunny.12 mph38%30.07 "Hg10 mi
9:30 AM86 °FSunny.10 mph38%30.07 "Hg10 mi
9:00 AM84 °FSunny.9 mph43%30.07 "Hg10 mi
8:30 AM81 °FSunny.9 mph51%30.07 "Hg10 mi
8:00 AM79 °FSunny.8 mph54%30.07 "Hg10 mi
7:30 AM77 °FSunny.9 mph61%30.07 "Hg10 mi
7:00 AM77 °FClear.7 mph61%30.07 "Hg10 mi
6:30 AM75 °FClear.7 mph65%30.07 "Hg10 mi
5:30 AM73 °FClear.5 mph69%30.07 "Hg10 mi
5:00 AM72 °FClear.5 mph73%30.07 "Hg10 mi
4:30 AM72 °FClear.3 mph73%30.07 "Hg10 mi
4:00 AM73 °FClear.3 mph74%30.07 "Hg10 mi
3:30 AM73 °FClear.3 mph74%30.07 "Hg10 mi
3:00 AM73 °FClear.3 mph74%30.07 "Hg10 mi
2:30 AM73 °FClear.5 mph69%30.09 "Hg10 mi
2:00 AM75 °FClear.3 mph65%30.09 "Hg10 mi
1:30 AM73 °FClear.3 mph69%30.09 "Hg10 mi
1:00 AM75 °FClear.3 mph65%30.09 "Hg10 mi
12:30 AM75 °FClear.3 mph69%30.09 "Hg10 mi
12:00 AM75 °FClear.5 mph69%30.09 "Hg10 mi
11:30 PM
Sat, Jul 4
77 °FClear.No wind65%30.12 "Hg10 mi
11:00 PM79 °FClear.2 mph65%30.09 "Hg10 mi
10:30 PM81 °FClear.3 mph58%30.09 "Hg10 mi
10:00 PM81 °FSunny.1 mph58%30.09 "Hg10 mi
9:30 PM81 °FSunny.1 mph58%30.09 "Hg10 mi
9:00 PM82 °FSunny.3 mph55%30.12 "Hg10 mi
Weather by CustomWeather, © 2015

See weather overviewHow to use our weather pages